Zurück zum Katalog

BREEZE-M DEB

AktivHEO
NORAD 32496·DEBRIS·🇷🇺 Russia

Gestartet Feb 28, 2006 von Baikonur Cosmodrome

Loading…

Nächste Überflüge (nächste 24 Stunden)

TLE

AktuellSource: Space-Track

Epoche: Sep 14, 2026, 04:31 UTC

1 32496U 06006AK  26257.18826873  .00003352  00000-0  29036-2 0  9996
2 32496  51.6928 293.7520 4893977 186.0023 164.8909  5.62781433 47975

Verfolge BREEZE-M DEB in Echtzeit mit AllMySat

Download on the App Store